Time,TemperatureF,DewpointF,PressureIn,WindDirection,WindDirectionDegrees,WindSpeedMPH,WindSpeedGustMPH,Humidity,HourlyPrecipIn,Conditions,Clouds,dailyrainin,SoftwareType,DateUTC
2013-03-28 00:02:00,28.0,18.0,30.00,NE,49,1.0,3.0,67,0.00,,,0.01,,2013-03-28 04:02:00,
2013-03-28 00:12:00,28.0,18.0,30.00,NE,49,1.0,3.0,67,0.00,,,0.01,,2013-03-28 04:12:00,
2013-03-28 00:23:00,28.0,19.0,30.00,ENE,65,1.0,3.0,68,0.00,,,0.01,,2013-03-28 04:23:00,
2013-03-28 00:32:00,28.0,19.0,30.00,NE,54,1.0,4.0,69,0.00,,,0.01,,2013-03-28 04:32:00,
2013-03-28 00:42:00,28.0,19.0,30.00,NE,54,1.0,4.0,69,0.00,,,0.01,,2013-03-28 04:42:00,
2013-03-28 00:52:00,28.0,20.0,30.00,NE,36,1.0,3.0,70,0.00,,,0.01,,2013-03-28 04:52:00,
2013-03-28 01:02:00,28.0,20.0,30.00,NNE,23,1.0,3.0,71,0.00,,,0.01,,2013-03-28 05:02:00,
2013-03-28 01:12:00,28.0,20.0,30.00,NNE,23,1.0,3.0,71,0.00,,,0.01,,2013-03-28 05:12:00,
2013-03-28 01:22:00,28.0,20.0,30.00,ENE,61,1.0,2.0,72,0.00,,,0.01,,2013-03-28 05:22:00,
2013-03-28 01:32:00,28.0,20.0,29.99,NNW,346,1.0,4.0,73,0.00,,,0.01,,2013-03-28 05:32:00,
2013-03-28 01:42:00,28.0,20.0,29.99,NNW,346,1.0,4.0,73,0.00,,,0.01,,2013-03-28 05:42:00,
2013-03-28 01:52:00,28.0,20.0,29.99,North,356,1.0,4.0,73,0.00,,,0.01,,2013-03-28 05:52:00,
2013-03-28 02:02:00,27.0,20.0,29.99,North,351,1.0,3.0,73,0.00,,,0.01,,2013-03-28 06:02:00,
2013-03-28 02:12:00,27.0,20.0,29.99,North,351,1.0,3.0,73,0.00,,,0.01,,2013-03-28 06:12:00,
2013-03-28 02:22:00,27.0,20.0,30.00,NE,50,1.0,3.0,73,0.00,,,0.01,,2013-03-28 06:22:00,
2013-03-28 02:33:00,27.0,20.0,30.00,NNE,18,1.0,4.0,74,0.00,,,0.01,,2013-03-28 06:33:00,
2013-03-28 02:42:00,27.0,20.0,30.00,NNE,18,1.0,4.0,74,0.00,,,0.01,,2013-03-28 06:42:00,
2013-03-28 02:52:00,27.0,20.0,30.00,NE,44,0.0,3.0,75,0.00,,,0.01,,2013-03-28 06:52:00,
2013-03-28 03:02:00,26.0,19.0,30.00,North,10,1.0,3.0,75,0.00,,,0.01,,2013-03-28 07:02:00,
2013-03-28 03:13:00,26.0,19.0,30.00,North,10,1.0,3.0,75,0.00,,,0.01,,2013-03-28 07:13:00,
2013-03-28 03:22:00,26.0,19.0,30.00,North,10,1.0,3.0,75,0.00,,,0.01,,2013-03-28 07:22:00,
2013-03-28 03:32:00,26.0,19.0,29.99,NNE,21,1.0,4.0,75,0.00,,,0.01,,2013-03-28 07:32:00,
2013-03-28 03:42:00,26.0,19.0,29.99,NNE,21,1.0,4.0,75,0.00,,,0.01,,2013-03-28 07:42:00,
2013-03-28 03:52:00,26.0,19.0,29.99,NE,34,0.0,2.0,76,0.00,,,0.01,,2013-03-28 07:52:00,
2013-03-28 04:03:00,26.0,19.0,29.99,NE,34,0.0,2.0,76,0.00,,,0.01,,2013-03-28 08:03:00,
2013-03-28 04:12:00,26.0,19.0,29.99,NE,34,0.0,2.0,76,0.00,,,0.01,,2013-03-28 08:12:00,
2013-03-28 04:22:00,26.0,19.0,29.99,NE,36,0.0,2.0,76,0.00,,,0.01,,2013-03-28 08:22:00,
2013-03-28 04:32:00,26.0,19.0,29.99,NE,42,1.0,3.0,76,0.00,,,0.01,,2013-03-28 08:32:00,
2013-03-28 04:42:00,26.0,19.0,29.99,NE,42,1.0,3.0,76,0.00,,,0.01,,2013-03-28 08:42:00,
2013-03-28 04:52:00,26.0,19.0,29.99,NE,47,1.0,4.0,75,0.00,,,0.01,,2013-03-28 08:52:00,
2013-03-28 05:02:00,26.0,19.0,29.99,ENE,63,0.0,3.0,76,0.00,,,0.01,,2013-03-28 09:02:00,
2013-03-28 05:12:00,26.0,19.0,29.99,ENE,63,0.0,3.0,76,0.00,,,0.01,,2013-03-28 09:12:00,
2013-03-28 05:22:00,25.0,19.0,29.99,NNE,14,0.0,3.0,76,0.00,,,0.01,,2013-03-28 09:22:00,
2013-03-28 05:33:00,25.0,19.0,29.99,NNE,14,0.0,3.0,76,0.00,,,0.01,,2013-03-28 09:33:00,
2013-03-28 05:42:00,25.0,19.0,29.99,NNE,14,0.0,3.0,76,0.00,,,0.01,,2013-03-28 09:42:00,
2013-03-28 05:52:00,25.0,19.0,29.99,NNE,26,0.0,2.0,76,0.00,,,0.01,,2013-03-28 09:52:00,
2013-03-28 06:03:00,25.0,19.0,30.00,ENE,57,1.0,2.0,76,0.00,,,0.01,,2013-03-28 10:03:00,
2013-03-28 06:12:00,25.0,19.0,30.00,ENE,57,1.0,2.0,76,0.00,,,0.01,,2013-03-28 10:12:00,
2013-03-28 06:22:00,25.0,19.0,30.00,NE,41,0.0,1.0,76,0.00,,,0.01,,2013-03-28 10:22:00,
2013-03-28 06:33:00,25.0,18.0,30.00,ENE,66,0.0,3.0,75,0.00,,,0.01,,2013-03-28 10:33:00,
2013-03-28 06:42:00,25.0,18.0,30.00,ENE,66,0.0,3.0,75,0.00,,,0.01,,2013-03-28 10:42:00,
2013-03-28 06:52:00,25.0,18.0,30.00,NE,52,0.0,4.0,75,0.00,,,0.01,,2013-03-28 10:52:00,
2013-03-28 07:03:00,25.0,18.0,30.00,NE,52,0.0,4.0,75,0.00,,,0.01,,2013-03-28 11:03:00,
2013-03-28 07:12:00,25.0,18.0,30.00,NE,52,0.0,4.0,75,0.00,,,0.01,,2013-03-28 11:12:00,
2013-03-28 07:23:00,25.0,18.0,30.01,NE,34,0.0,2.0,74,0.00,,,0.01,,2013-03-28 11:23:00,
2013-03-28 07:32:00,25.0,18.0,30.02,NNE,27,1.0,5.0,73,0.00,,,0.01,,2013-03-28 11:32:00,
2013-03-28 07:43:00,25.0,18.0,30.02,NNE,27,1.0,5.0,73,0.00,,,0.01,,2013-03-28 11:43:00,
2013-03-28 07:52:00,25.0,18.0,30.02,East,84,0.0,3.0,74,0.00,,,0.01,,2013-03-28 11:52:00,
2013-03-28 08:02:00,25.0,18.0,30.02,East,83,0.0,1.0,74,0.00,,,0.01,,2013-03-28 12:02:00,
2013-03-28 08:12:00,25.0,18.0,30.02,East,83,0.0,1.0,74,0.00,,,0.01,,2013-03-28 12:12:00,
2013-03-28 08:22:00,25.0,18.0,30.03,NE,41,0.0,4.0,74,0.00,,,0.01,,2013-03-28 12:22:00,
2013-03-28 08:33:00,25.0,18.0,30.03,NE,49,1.0,4.0,73,0.00,,,0.01,,2013-03-28 12:33:00,
2013-03-28 08:42:00,25.0,18.0,30.03,NE,49,1.0,4.0,73,0.00,,,0.01,,2013-03-28 12:42:00,
2013-03-28 08:52:00,26.0,19.0,30.04,NE,47,0.0,2.0,73,0.00,,,0.01,,2013-03-28 12:52:00,
2013-03-28 09:02:00,26.0,19.0,30.04,NE,52,0.0,2.0,73,0.00,,,0.01,,2013-03-28 13:02:00,
2013-03-28 09:12:00,26.0,19.0,30.04,NE,52,0.0,2.0,73,0.00,,,0.01,,2013-03-28 13:12:00,
2013-03-28 09:22:00,26.0,19.0,30.04,NE,52,0.0,2.0,73,0.00,,,0.01,,2013-03-28 13:22:00,
2013-03-28 09:32:00,27.0,18.0,30.06,NNE,30,2.0,6.0,69,0.00,,,0.01,,2013-03-28 13:32:00,
2013-03-28 09:42:00,27.0,18.0,30.06,NNE,30,2.0,6.0,69,0.00,,,0.01,,2013-03-28 13:42:00,
2013-03-28 09:52:00,28.0,19.0,30.06,NNE,29,3.0,9.0,68,0.00,,,0.01,,2013-03-28 13:52:00,
2013-03-28 10:02:00,28.0,19.0,30.06,NE,45,2.0,9.0,68,0.00,,,0.01,,2013-03-28 14:02:00,
2013-03-28 10:12:00,28.0,19.0,30.06,NE,45,2.0,9.0,68,0.00,,,0.01,,2013-03-28 14:12:00,
2013-03-28 10:22:00,29.0,19.0,30.06,NNE,24,2.0,6.0,65,0.00,,,0.01,,2013-03-28 14:22:00,
2013-03-28 10:33:00,30.0,18.0,30.06,North,356,2.0,6.0,61,0.00,,,0.01,,2013-03-28 14:33:00,
2013-03-28 10:42:00,30.0,18.0,30.06,North,356,2.0,6.0,61,0.00,,,0.01,,2013-03-28 14:42:00,
2013-03-28 10:52:00,32.0,19.0,30.06,North,10,2.0,5.0,57,0.00,,,0.01,,2013-03-28 14:52:00,
2013-03-28 11:02:00,33.0,17.0,30.06,NE,44,2.0,7.0,51,0.00,,,0.01,,2013-03-28 15:02:00,
2013-03-28 11:12:00,33.0,17.0,30.06,NE,44,2.0,7.0,51,0.00,,,0.01,,2013-03-28 15:12:00,
2013-03-28 11:22:00,34.0,17.0,30.07,North,358,2.0,6.0,49,0.00,,,0.01,,2013-03-28 15:22:00,
2013-03-28 11:33:00,35.0,17.0,30.06,North,9,3.0,6.0,47,0.00,,,0.01,,2013-03-28 15:33:00,
2013-03-28 11:43:00,35.0,17.0,30.06,North,9,3.0,6.0,47,0.00,,,0.01,,2013-03-28 15:43:00,
2013-03-28 11:53:00,35.0,14.0,30.07,North,354,3.0,10.0,41,0.00,,,0.01,,2013-03-28 15:53:00,
2013-03-28 12:03:00,36.0,14.0,30.07,NNE,33,3.0,5.0,40,0.00,,,0.01,,2013-03-28 16:03:00,
2013-03-28 12:12:00,36.0,14.0,30.07,NNE,33,3.0,5.0,40,0.00,,,0.01,,2013-03-28 16:12:00,
2013-03-28 12:23:00,37.0,14.0,30.07,NNE,17,3.0,8.0,39,0.00,,,0.01,,2013-03-28 16:23:00,
2013-03-28 12:32:00,38.0,14.0,30.08,NNE,27,3.0,6.0,37,0.00,,,0.01,,2013-03-28 16:32:00,
2013-03-28 12:42:00,38.0,14.0,30.08,NNE,27,3.0,6.0,37,0.00,,,0.01,,2013-03-28 16:42:00,
2013-03-28 12:52:00,40.0,14.0,30.08,NNW,334,2.0,6.0,34,0.00,,,0.01,,2013-03-28 16:52:00,
2013-03-28 13:02:00,40.0,14.0,30.08,NNW,334,2.0,6.0,34,0.00,,,0.01,,2013-03-28 17:02:00,
2013-03-28 13:12:00,40.0,14.0,30.08,NNW,334,2.0,6.0,34,0.00,,,0.01,,2013-03-28 17:12:00,
2013-03-28 13:22:00,41.0,13.0,30.06,NE,46,2.0,8.0,32,0.00,,,0.01,,2013-03-28 17:22:00,
2013-03-28 13:32:00,43.0,14.0,30.06,NNE,30,2.0,6.0,31,0.00,,,0.01,,2013-03-28 17:32:00,
2013-03-28 13:42:00,43.0,14.0,30.06,NNE,30,2.0,6.0,31,0.00,,,0.01,,2013-03-28 17:42:00,
2013-03-28 13:52:00,44.0,15.0,30.06,WNW,299,2.0,5.0,31,0.00,,,0.01,,2013-03-28 17:52:00,
2013-03-28 14:02:00,44.0,16.0,30.06,NNW,332,2.0,7.0,32,0.00,,,0.01,,2013-03-28 18:02:00,
2013-03-28 14:12:00,44.0,16.0,30.06,NNW,332,2.0,7.0,32,0.00,,,0.01,,2013-03-28 18:12:00,
2013-03-28 14:22:00,45.0,15.0,30.06,North,3,3.0,7.0,30,0.00,,,0.01,,2013-03-28 18:22:00,
2013-03-28 14:32:00,46.0,15.0,30.07,North,356,3.0,7.0,28,0.00,,,0.01,,2013-03-28 18:32:00,
2013-03-28 14:42:00,46.0,15.0,30.07,North,356,3.0,7.0,28,0.00,,,0.01,,2013-03-28 18:42:00,
2013-03-28 14:52:00,46.0,16.0,30.06,North,354,3.0,8.0,29,0.00,,,0.01,,2013-03-28 18:52:00,
2013-03-28 15:02:00,46.0,12.0,30.06,NW,312,4.0,11.0,25,0.00,,,0.00,,2013-03-28 19:02:00,
2013-03-28 15:12:00,46.0,12.0,30.06,NW,312,4.0,11.0,25,0.00,,,0.00,,2013-03-28 19:12:00,
2013-03-28 15:23:00,46.0,12.0,30.06,NW,312,4.0,11.0,25,0.00,,,0.00,,2013-03-28 19:23:00,
2013-03-28 15:33:00,46.0,8.0,30.05,NE,41,4.0,11.0,21,0.00,,,0.00,,2013-03-28 19:33:00,
2013-03-28 15:42:00,46.0,8.0,30.05,NE,41,4.0,11.0,21,0.00,,,0.00,,2013-03-28 19:42:00,
2013-03-28 15:52:00,46.0,9.0,30.05,NNW,348,3.0,6.0,22,0.00,,,0.00,,2013-03-28 19:52:00,
2013-03-28 16:03:00,46.0,8.0,30.04,WNW,288,3.0,6.0,21,0.00,,,0.00,,2013-03-28 20:03:00,
2013-03-28 16:12:00,46.0,8.0,30.04,WNW,288,3.0,6.0,21,0.00,,,0.00,,2013-03-28 20:12:00,
2013-03-28 16:22:00,47.0,9.0,30.03,NNE,27,3.0,6.0,21,0.00,,,0.00,,2013-03-28 20:22:00,
2013-03-28 16:32:00,46.0,8.0,30.03,NNE,24,3.0,8.0,21,0.00,,,0.00,,2013-03-28 20:32:00,
2013-03-28 16:42:00,46.0,8.0,30.03,NNE,24,3.0,8.0,21,0.00,,,0.00,,2013-03-28 20:42:00,
2013-03-28 16:52:00,46.0,8.0,30.03,NW,305,3.0,8.0,21,0.00,,,0.00,,2013-03-28 20:52:00,
2013-03-28 17:03:00,46.0,8.0,30.03,WNW,294,3.0,11.0,21,0.00,,,0.00,,2013-03-28 21:03:00,
2013-03-28 17:12:00,46.0,8.0,30.03,WNW,294,3.0,11.0,21,0.00,,,0.00,,2013-03-28 21:12:00,
2013-03-28 17:22:00,46.0,11.0,30.04,NNE,20,3.0,7.0,24,0.00,,,0.00,,2013-03-28 21:22:00,
2013-03-28 17:33:00,46.0,12.0,30.04,North,358,2.0,6.0,25,0.00,,,0.00,,2013-03-28 21:33:00,
2013-03-28 17:43:00,46.0,12.0,30.04,North,358,2.0,6.0,25,0.00,,,0.00,,2013-03-28 21:43:00,
2013-03-28 17:53:00,46.0,10.0,30.04,NNW,340,2.0,6.0,23,0.00,,,0.00,,2013-03-28 21:53:00,
2013-03-28 18:03:00,46.0,12.0,30.05,NNW,336,2.0,6.0,25,0.00,,,0.00,,2013-03-28 22:03:00,
2013-03-28 18:13:00,46.0,12.0,30.05,NNW,336,2.0,6.0,25,0.00,,,0.00,,2013-03-28 22:13:00,
2013-03-28 18:23:00,45.0,9.0,30.05,North,6,3.0,7.0,23,0.00,,,0.00,,2013-03-28 22:23:00,
2013-03-28 18:32:00,45.0,12.0,30.05,NE,47,2.0,4.0,26,0.00,,,0.00,,2013-03-28 22:32:00,
2013-03-28 18:42:00,45.0,12.0,30.05,NE,47,2.0,4.0,26,0.00,,,0.00,,2013-03-28 22:42:00,
2013-03-28 18:52:00,43.0,10.0,30.06,North,1,2.0,6.0,26,0.00,,,0.00,,2013-03-28 22:52:00,
2013-03-28 19:03:00,43.0,12.0,30.06,North,358,2.0,5.0,28,0.00,,,0.00,,2013-03-28 23:03:00,
2013-03-28 19:12:00,43.0,12.0,30.06,North,358,2.0,5.0,28,0.00,,,0.00,,2013-03-28 23:12:00,
2013-03-28 19:22:00,42.0,11.0,30.06,NNE,28,2.0,6.0,28,0.00,,,0.00,,2013-03-28 23:22:00,
2013-03-28 19:32:00,41.0,12.0,30.08,NE,40,2.0,6.0,30,0.00,,,0.00,,2013-03-28 23:32:00,
2013-03-28 19:42:00,41.0,12.0,30.08,NE,40,2.0,6.0,30,0.00,,,0.00,,2013-03-28 23:42:00,
2013-03-28 19:52:00,40.0,13.0,30.08,NE,48,0.0,1.0,33,0.00,,,0.00,,2013-03-28 23:52:00,
2013-03-28 20:02:00,39.0,14.0,30.07,ENE,60,0.0,3.0,35,0.00,,,0.00,,2013-03-29 00:02:00,
2013-03-28 20:12:00,39.0,14.0,30.07,ENE,60,0.0,3.0,35,0.00,,,0.00,,2013-03-29 00:12:00,
2013-03-28 20:22:00,38.0,13.0,30.09,ESE,108,1.0,4.0,35,0.00,,,0.00,,2013-03-29 00:22:00,
2013-03-28 20:32:00,37.0,13.0,30.09,East,93,0.0,1.0,36,0.00,,,0.00,,2013-03-29 00:32:00,
2013-03-28 20:42:00,37.0,13.0,30.09,East,93,0.0,1.0,36,0.00,,,0.00,,2013-03-29 00:42:00,
2013-03-28 20:52:00,36.0,14.0,30.08,NNW,343,0.0,1.0,40,0.00,,,0.00,,2013-03-29 00:52:00,
2013-03-28 21:02:00,36.0,14.0,30.09,SSW,195,0.0,2.0,40,0.00,,,0.00,,2013-03-29 01:02:00,
2013-03-28 21:12:00,36.0,14.0,30.09,SSW,195,0.0,2.0,40,0.00,,,0.00,,2013-03-29 01:12:00,
2013-03-28 21:22:00,36.0,15.0,30.09,SSE,154,0.0,2.0,41,0.00,,,0.00,,2013-03-29 01:22:00,
2013-03-28 21:33:00,35.0,14.0,30.10,SE,145,0.0,1.0,42,0.00,,,0.00,,2013-03-29 01:33:00,
2013-03-28 21:42:00,35.0,14.0,30.10,SE,145,0.0,1.0,42,0.00,,,0.00,,2013-03-29 01:42:00,
2013-03-28 21:52:00,35.0,15.0,30.10,SE,142,0.0,1.0,44,0.00,,,0.00,,2013-03-29 01:52:00,
2013-03-28 22:03:00,35.0,15.0,30.10,SE,142,0.0,1.0,44,0.00,,,0.00,,2013-03-29 02:03:00,
2013-03-28 22:12:00,35.0,15.0,30.10,SE,142,0.0,1.0,44,0.00,,,0.00,,2013-03-29 02:12:00,
2013-03-28 22:22:00,34.0,15.0,30.10,SE,130,0.0,1.0,45,0.00,,,0.00,,2013-03-29 02:22:00,
2013-03-28 22:32:00,34.0,15.0,30.11,SSE,147,0.0,1.0,46,0.00,,,0.00,,2013-03-29 02:32:00,
2013-03-28 22:42:00,34.0,15.0,30.11,SSE,147,0.0,1.0,46,0.00,,,0.00,,2013-03-29 02:42:00,
2013-03-28 22:53:00,34.0,15.0,30.11,SSE,149,0.0,1.0,46,0.00,,,0.00,,2013-03-29 02:53:00,
2013-03-28 23:02:00,35.0,16.0,30.11,North,0,0.0,0.0,46,0.00,,,0.00,,2013-03-29 03:02:00,
2013-03-28 23:12:00,35.0,16.0,30.11,North,0,0.0,0.0,46,0.00,,,0.00,,2013-03-29 03:12:00,
2013-03-28 23:22:00,34.0,17.0,30.11,North,0,0.0,0.0,50,0.00,,,0.00,,2013-03-29 03:22:00,
2013-03-28 23:32:00,34.0,18.0,30.11,SSE,160,0.0,1.0,51,0.00,,,0.00,,2013-03-29 03:32:00,
2013-03-28 23:43:00,34.0,18.0,30.11,SSE,160,0.0,1.0,51,0.00,,,0.00,,2013-03-29 03:43:00,
2013-03-28 23:53:00,34.0,18.0,30.11,South,183,0.0,2.0,51,0.00,,,0.00,,2013-03-29 03:53:00,